Regional Weather Roundup
Issued by NWS State College, PA

Home | Current Version | Previous Version | Graphics & Text | Print | Product List | Glossary On
Versions: 1 2 3 4 5 6 7 8 9 10 11 12 13 14 15 16 17 18 19 20 21 22 23 24 25 26 27 28 29 30 31 32 33 34 35 36 37 38 39 40 41 42 43 44 45 46 47 48 49 50
000
ASUS41 KCTP 031103
RWRCTP

REGIONAL WEATHER ROUNDUP
NATIONAL WEATHER SERVICE STATE COLLEGE PA
600 AM EST TUE MAR 03 2015

Note: "fair" indicates few or no clouds below 12,000 feet with no
significant weather and/or obstructions to visibility.

* = STATION THAT DOES NOT REPORT PRECIPITATION /E.G. RAIN...SNOW...ETC/
    THUNDER OR FOG.

PAZ002>004-007>009-013>016-020>023-029>032-031200-
WESTERN PENNSYLVANIA

CITY           SKY/WX    TMP DP  RH WIND       PRES   REMARKS
ERIE           CLOUDY    18   8  65 S9        30.31F WCI   7
MEADVILLE        N/A     17   8  67 SE5       30.25F WCI  10
FRANKLIN*      CLOUDY    14   7  73 SE6       30.28F WCI   5
NEW CASTLE     FAIR      19  10  68 E5        30.29F WCI  12
BEAVER COUNTY  NOT AVBL
BUTLER*        CLOUDY    19  10  68 E8        30.29F WCI   9
PITTSBURGH INT CLOUDY    21  13  71 E8        30.25F WCI  11
PITTSBURGH     CLOUDY    20  11  68 NE5       30.25F WCI  13
INDIANA*       CLOUDY    18  12  79 E7        30.32F WCI   8
LATROBE        CLOUDY    21  18  86 N3        30.29F
WASHINGTON CO* CLOUDY    21  16  79 NE7       30.25F WCI  13
$$

PAZ004>006-010>012-017>019-024>028-033>037-041-042-045-046-049>053-031200-
CENTRAL PENNSYLVANIA

CITY           SKY/WX    TMP DP  RH WIND       PRES   REMARKS
BRADFORD       CLOUDY     4  -1  80 SE5       30.24S HAZE    WCI  -5
DUBOIS         CLOUDY    12   7  80 E7        30.26F WCI   1
CLEARFIELD     CLOUDY    10   4  76 NE3       30.31F
JOHNSTOWN      CLOUDY    16  10  77 E6        30.21F WCI   7
ALTOONA        CLOUDY    18  10  71 CALM      30.31F
STATE COLLEGE  CLOUDY    14   9  79 CALM      30.34F
WILLIAMSPORT   MOCLDY    13   6  74 CALM      30.42R
SELINSGROVE    MOCLDY    16   9  74 CALM      30.42R
FT INDIANTOWN  CLOUDY    21   8  57 E1        30.41R
CAPITAL CITY   CLOUDY    22  11  62 E6        30.43R WCI  14
HARRISBURG     CLOUDY    23  11  60 CALM      30.42R
YORK           CLOUDY    23  11  60 NE5       30.41R
$$

PAZ038>040-043-044-047-048-054-055-060>062-067>071-031200-
EASTERN PENNSYLVANIA

CITY           SKY/WX    TMP DP  RH WIND       PRES   REMARKS
SCRANTON       PTCLDY    14   6  70 E3        30.35S
MOUNT POCONO   CLEAR      7   3  84 W6        30.28R WCI  -3
ALLENTOWN      PTCLDY    14   6  70 NW3       30.41R
QUAKERTOWN*    MOSUNNY   14   9  79 CALM      30.42R
READING        MOCLDY    19   9  65 CALM      30.43R
LANCASTER      CLOUDY    21  10  62 CALM      30.42R
COATESVILLE    PTSUNNY   23  12  63 N5        30.40S
POTTSTOWN      MOCLDY    19  11  70 N3        30.44R
BLUE BELL      PTCLDY    23  14  68 CALM      30.43R
DOYLESTOWN     PTCLDY    16   9  74 S3        30.41S
WILLOW GROVE   NOT AVBL
NORTH PHILA    PTCLDY    24   9  52 NW5       30.45S
PHILADELPHIA   MOCLDY    26  11  52 N9        30.45F
$$


USA.gov is the U.S. government's official web portal to all federal, state and local government web resources and services.